Weather History for Caldwell, NJ

Change the Weather History Date:

Friday, November 22, 2013

  Actual Average Record
Temperature  
Mean Temperature 50 °F -  
Max Temperature 55 °F 48 °F 66 °F (2007)
Min Temperature 46 °F 28 °F 14 °F (1984)
Degree Days  
Heating Degree Days 14    
Moisture  
Dew Point 45 °F    
Average Humidity 86    
Maximum Humidity 100    
Minimum Humidity 72    
Precipitation  
Precipitation 0.00 in - - ()
Sea Level Pressure  
Sea Level Pressure 30.13 in    
Wind  
Wind Speed 1 mph (WSW)    
Max Wind Speed 7 mph    
Max Gust Speed -    
Visibility 9 miles    
Events Rain    
Averages and records for this station are not official NWS values.
T = Trace of Precipitation, MM = Missing Value Source: NWS Daily Summary

Daily Weather History Graph

Daily Weather History Graph

Search for Another Location

Airport:

Trip Planner

Search our weather history database for the weather conditions in past years. The results will help you decide how hot, cold, wet, or windy it might be!

Date:

Astronomy

Nov. 22, 2013 Rise Set
Actual Time 6:52 AM EST 4:33 PM EST
Civil Twilight 6:22 AM EST 5:03 PM EST
Nautical Twilight 5:49 AM EST 5:37 PM EST
Astronomical Twilight 5:16 AM EST 6:09 PM EST
Moon 9:03 PM EST (11/22) 10:34 AM EST (11/22)
Length of Visible Light 10h 40m
Length of Day
9h 40m
Waning Gibbous, 78% of the Moon is Illuminated
Nov 22
Waning Gibbous
Nov 25
Last Quarter
Dec 2
New
Dec 9
First Quarter
Dec 17
Full

Hourly Weather History & Observations

Time (EST) Temp. Windchill Dew Point Humidity Pressure Visibility Wind Dir Wind Speed Gust Speed Precip Events Conditions
12:45 AM 46.4 °F - 39.2 °F 76% 30.39 in 10.0 mi Calm Calm - N/A   Overcast
12:53 AM 46.0 °F - 39.9 °F 79% 30.40 in 10.0 mi Calm Calm - N/A   Overcast
1:53 AM 46.9 °F - 39.9 °F 77% 30.38 in 10.0 mi Calm Calm - N/A   Overcast
2:53 AM 46.0 °F - 41.0 °F 83% 30.33 in 10.0 mi Calm Calm - N/A   Overcast
3:53 AM 46.9 °F - 39.9 °F 77% 30.31 in 10.0 mi Calm Calm - N/A   Overcast
4:53 AM 46.9 °F - 39.9 °F 77% 30.29 in 10.0 mi Calm Calm - 0.00 in Rain Light Rain
5:01 AM 46.4 °F - 41.0 °F 81% 30.26 in 10.0 mi Calm Calm - 0.00 in Rain Light Rain
5:29 AM 46.4 °F - 42.8 °F 87% 30.26 in 10.0 mi Calm Calm - 0.00 in Rain Light Rain
5:53 AM 46.0 °F - 43.0 °F 89% 30.27 in 10.0 mi Calm Calm - 0.00 in Rain Light Rain
6:18 AM 46.4 °F - 44.6 °F 93% 30.24 in 10.0 mi Calm Calm - 0.00 in Rain Light Rain
6:42 AM 46.4 °F - 44.6 °F 93% 30.23 in 10.0 mi Calm Calm - 0.00 in   Overcast
6:53 AM 46.0 °F - 44.1 °F 93% 30.25 in 10.0 mi Calm Calm - 0.00 in   Overcast
7:53 AM 46.9 °F - 44.1 °F 90% 30.22 in 8.0 mi Calm Calm - 0.00 in Rain Light Rain
8:36 AM 46.4 °F - 44.6 °F 93% 30.20 in 2.5 mi Calm Calm - N/A Rain Rain
8:53 AM 46.9 °F - 46.0 °F 97% 30.21 in 2.5 mi Calm Calm - N/A   Overcast
9:00 AM 46.4 °F 44.3 °F 46.4 °F 100% 30.19 in 10.0 mi SW 4.6 mph - N/A   Overcast
9:11 AM 48.2 °F - 46.4 °F 93% 30.19 in 10.0 mi SW 3.5 mph - N/A   Overcast
9:53 AM 48.0 °F - 46.9 °F 96% 30.19 in 5.0 mi Calm Calm - N/A Rain Light Rain
10:32 AM 48.2 °F - 46.4 °F 93% 30.15 in 7.0 mi SW 4.6 mph - N/A   Overcast
10:53 AM 48.9 °F - 48.0 °F 97% 30.16 in 8.0 mi SW 4.6 mph - N/A   Overcast
11:13 AM 50.0 °F - 48.2 °F 94% 30.12 in 8.0 mi Variable 4.6 mph - N/A   Overcast
11:40 AM 51.8 °F - 48.2 °F 88% 30.11 in 9.0 mi WSW 6.9 mph - N/A   Overcast
11:53 AM 53.1 °F - 48.9 °F 86% 30.12 in 9.0 mi WSW 5.8 mph - N/A   Mostly Cloudy
12:53 PM 55.0 °F - 48.0 °F 77% 30.08 in 10.0 mi Variable 5.8 mph - N/A   Scattered Clouds
1:53 PM 55.9 °F - 46.9 °F 72% 30.05 in 10.0 mi WSW 3.5 mph - N/A   Clear
2:53 PM 55.9 °F - 46.9 °F 72% 30.05 in 10.0 mi WSW 5.8 mph - N/A   Partly Cloudy
3:53 PM 55.0 °F - 46.9 °F 74% 30.03 in 10.0 mi WSW 4.6 mph - N/A   Clear
4:53 PM 54.0 °F - 46.9 °F 77% 30.02 in 10.0 mi Variable 3.5 mph - N/A   Partly Cloudy
5:53 PM 54.0 °F - 46.9 °F 77% 30.01 in 10.0 mi WSW 4.6 mph - N/A   Mostly Cloudy
6:53 PM 53.1 °F - 46.9 °F 80% 29.99 in 10.0 mi Calm Calm - N/A   Overcast
7:53 PM 53.1 °F - 46.9 °F 80% 29.98 in 10.0 mi SW 3.5 mph - N/A   Overcast
8:53 PM 53.1 °F - 46.9 °F 80% 29.97 in 10.0 mi SW 3.5 mph - N/A   Overcast
9:53 PM 51.1 °F - 48.0 °F 89% 29.95 in 9.0 mi Calm Calm - 0.00 in   Mostly Cloudy
10:25 PM 50.0 °F - 48.2 °F 94% 29.94 in 8.0 mi Calm Calm - N/A   Mostly Cloudy
10:38 PM 50.0 °F - 48.2 °F 94% 29.93 in 9.0 mi Calm Calm - N/A   Overcast
10:53 PM 51.1 °F - 48.0 °F 89% 29.94 in 9.0 mi Calm Calm - N/A   Overcast
11:25 PM 50.0 °F - 48.2 °F 94% 29.92 in 9.0 mi Calm Calm - N/A   Overcast
11:36 PM 50.0 °F - 48.2 °F 94% 29.92 in 8.0 mi Calm Calm - N/A   Mostly Cloudy
11:53 PM 51.1 °F - 46.9 °F 86% 29.94 in 10.0 mi NW 5.8 mph - N/A   Scattered Clouds